Syracuse, NY

7:25 AM EST on February 27, 2017 (GMT -0500)
Syracuse Hancock International

Weather History for KSYR - May, 2012

Change the Weather History Date:

Sunday, May 13, 2012

  Actual Average Record
Temperature  
Mean Temperature 65 °F 57 °F  
Max Temperature 74 °F 68 °F 86 °F (2004)
Min Temperature 55 °F 45 °F 30 °F (2005)
Degree Days  
Heating Degree Days 0 9  
Month to date heating degree days 75 137  
Since 1 July heating degree days 5083 6472  
Cooling Degree Days 0 1  
Month to date cooling degree days 2 3  
Year to date cooling degree days 9 7  
Growing Degree Days 14 (Base 50)    
Moisture  
Dew Point 51 °F    
Average Humidity 66    
Maximum Humidity 84    
Minimum Humidity 48    
Precipitation  
Precipitation 0.00 in 0.10 in 1.13 in (1990)
Month to date precipitation 2.57 1.29  
Year to date precipitation 12.06 12.00  
Snow  
Snow 0.00 in 0.00 in T in (2013)
Month to date snowfall 0.0 0.1  
Since 1 July snowfall 50.6 123.8  
Snow Depth 0.00 in    
Sea Level Pressure  
Sea Level Pressure 30.13 in    
Wind  
Wind Speed 5 mph (NW)    
Max Wind Speed 15 mph    
Max Gust Speed 20 mph    
Visibility 10 miles    
Events      
T = Trace of Precipitation, MM = Missing Value Source: NWS Daily Summary

Daily Weather History Graph

Daily Weather History Graph

Search for Another Location

Airport or City:

Trip Planner

Search our weather history database for the weather conditions in past years. The results will help you decide how hot, cold, wet, or windy it might be!

Date:

Astronomy

May. 13, 2012 Rise Set
Actual Time 5:42 AM EDT 8:19 PM EDT
Civil Twilight 5:10 AM EDT 8:52 PM EDT
Nautical Twilight 4:29 AM EDT 9:33 PM EDT
Astronomical Twilight 3:43 AM EDT 10:19 PM EDT
Moon 1:57 AM EDT (5/13) 1:28 PM EDT (5/13)
Length of Visible Light 15h 42m
Length of Day
14h 37m
Last Quarter, 42% of the Moon is Illuminated
May 13
Last Quarter
May 20
New
May 28
First Quarter
Jun 4
Full
Jun 11
Last Quarter

Hourly Weather History & Observations

Time (EDT) Temp. Dew Point Humidity Pressure Visibility Wind Dir Wind Speed Gust Speed Precip Events Conditions
12:54 AM 63.0 °F 43.0 °F 48% 30.12 in 10.0 mi West 5.8 mph - N/A   Mostly Cloudy
1:54 AM 63.0 °F 43.0 °F 48% 30.13 in 10.0 mi West 6.9 mph - N/A   Scattered Clouds
2:54 AM 61.0 °F 44.1 °F 54% 30.13 in 10.0 mi WNW 3.5 mph - N/A   Overcast
3:54 AM 61.0 °F 45.0 °F 56% 30.13 in 10.0 mi Calm Calm - N/A   Overcast
4:54 AM 60.1 °F 46.0 °F 60% 30.13 in 10.0 mi West 4.6 mph - N/A   Overcast
5:54 AM 57.9 °F 46.0 °F 65% 30.14 in 10.0 mi Calm Calm - N/A   Overcast
6:54 AM 57.9 °F 48.0 °F 70% 30.16 in 10.0 mi Calm Calm - N/A   Mostly Cloudy
7:54 AM 61.0 °F 48.9 °F 64% 30.17 in 10.0 mi NW 5.8 mph - N/A   Mostly Cloudy
8:54 AM 64.0 °F 51.1 °F 63% 30.18 in 10.0 mi Variable 3.5 mph - N/A   Mostly Cloudy
9:54 AM 66.0 °F 51.1 °F 59% 30.18 in 10.0 mi Variable 3.5 mph - N/A   Mostly Cloudy
10:54 AM 69.1 °F 53.1 °F 57% 30.17 in 10.0 mi West 6.9 mph - N/A   Scattered Clouds
11:54 AM 71.1 °F 53.1 °F 53% 30.15 in 10.0 mi NW 11.5 mph - N/A   Mostly Cloudy
12:54 PM 71.1 °F 53.1 °F 53% 30.14 in 10.0 mi WNW 9.2 mph - N/A   Mostly Cloudy
1:54 PM 71.1 °F 54.0 °F 55% 30.13 in 10.0 mi NNW 11.5 mph 16.1 mph N/A   Mostly Cloudy
2:54 PM 73.0 °F 53.1 °F 49% 30.12 in 10.0 mi NNW 10.4 mph - N/A   Mostly Cloudy
3:54 PM 73.0 °F 54.0 °F 51% 30.11 in 10.0 mi North 13.8 mph 19.6 mph N/A   Mostly Cloudy
4:54 PM 71.1 °F 52.0 °F 51% 30.11 in 10.0 mi NNW 10.4 mph - N/A   Mostly Cloudy
5:54 PM 69.1 °F 53.1 °F 57% 30.10 in 10.0 mi NE 8.1 mph - N/A   Mostly Cloudy
6:54 PM 68.0 °F 51.1 °F 55% 30.09 in 10.0 mi North 5.8 mph - N/A   Mostly Cloudy
7:54 PM 66.0 °F 52.0 °F 60% 30.09 in 10.0 mi Calm Calm - N/A   Mostly Cloudy
8:54 PM 64.0 °F 54.0 °F 70% 30.09 in 10.0 mi NE 4.6 mph - N/A   Mostly Cloudy
9:54 PM 64.0 °F 54.0 °F 70% 30.10 in 10.0 mi Calm Calm - N/A   Mostly Cloudy
10:54 PM 62.1 °F 55.0 °F 78% 30.10 in 10.0 mi Calm Calm - N/A   Mostly Cloudy
11:54 PM 61.0 °F 55.0 °F 81% 30.09 in 10.0 mi Calm Calm - N/A   Mostly Cloudy